Voltar ao catálogo

FENGYUN 1C DEB

AtivoPO
NORAD 30469·DEBRIS·🇨🇳 China

Lançado May 10, 1999 de Taiyuan Satellite Launch Center

Loading…

Próximas Passagens (próximas 24 horas)

TLE

AtualizadoSource: Space-Track

Época: Sep 14, 2026, 00:14 UTC

1 30469U 99025AGG 26257.01027802  .00001272  00000-0  84071-3 0  9994
2 30469  98.4630  91.2590 0158815 120.4278  32.0170 13.97221019995496

Acompanhe FENGYUN 1C DEB em tempo real com AllMySat

Download on the App Store